STARLINK-1478, 45755

Orbit data source: Space-Track

STARLINK-1478, 45755 is a payload satellite in LEO that was launched on Sat, 13 Jun 2020 UTC via an FALCON 9 launch vehicle from the Air Force Eastern Test Range (AFETR). Payload-class satellites include a variety of spacecraft equipped with specific instruments for various scientific and technological missions. These include communications satellites like Starlink; space stations such as the ISS; scientific satellites like the Hubble; Earth observation satellites from companies like Planet Labs, Umbra, and HawkEye 360; GPS; miniature CubeSats for education and research; and military/defense satellites.

Loading next visibility...
Identifier
45755, 2020-038AB
Orbit
LEO
Last TLE update
21 hours ago
Origin
Manufacturer
SpaceX/Seattle
Mission
Operational Commercial Communications
Bus & Motor
STARLINK, Unknown motor
Mass
260 kg wet, ~248 kg dry
Launch date (UTC)
2020-06-13 (5 years ago)
Launch vehicle
FALCON 9
Launch site
Air Force Eastern Test Range (AFETR)
Object type
Payload
Rocket body
Debris
Shape & HBR
Box + 1 Pan, 8.86 m
Radar Cross Section
13.562 m², Large (>1 m²)

Expand to show TLE details & history

TLE from 21 hours ago
0 STARLINK-1478
1 45755U 20038AB  25138.62062759  .00001649  00000-0  12954-3 0  9999
2 45755  53.0550 101.2313 0001463  93.0874 267.0283 15.06400836271991
Epoch: 2025-05-18T14:53Z
TLE epoch observation values (Epoch: 2025-05-18T14:53:42.223Z)
Latitude
0.00001°
Longitude
1.2604°
Altitude
548.141 km
Speed
7.589 km/s
True Right ascension
06h 44m 55s
True Declination
0° 00' 00"
Sunlit
Object was in daylight at epoch
Visualization orbit readout
Latitude
40.0465°
Longitude
36.29187°
Altitude
550.042 km
Speed
7.592 km/s
Apparent Right ascension
08h 52m 33s
Apparent Declination
2° 03' 03"
Sunlit
Object is in daylight
Visualization observer readout
Local Sidereal Time
20:39:00
Azimuth
354.945° N
Elevation
-47.918°
Doppler factor
1
Orbital elements
Apogee altitude
548.493 km
Perigee altitude
546.466 km
Semi-major axis
6,925.617 km
Eccentricity
0.00015
Inclination
53.055°
RAAN
101.2313°
Arg. of periapsis
93.0874°
True anomaly
Unknown
Mean anomaly
267.0283°
Eccentric anomaly
Unknown
Mean motion
3.76578 °/min
Orbital period
95.6 mins
BSTAR
0.00012954
Loading maneuver chart data...
Loading SW <> Apogee altitude chart data...

STARLINK-1478 Visibility forecast

Observer location: undefined°, undefined°

Span
Click to sort rows by Start time (UTC) header in descending order
Start Az.
Max El. time (UTC)
Max El. Az.
Max El.
End time (UTC)
End Az.
5 mins2025-05-19 22:53:51.455Z171.164° S2025-05-19 22:55:51.455Z135.569° SSE20.72°2025-05-19 22:58:51.455Z81.871° E
6 mins2025-05-20 00:32:51.455Z255.355° W2025-05-20 00:35:51.455Z349.253° N36.852°2025-05-20 00:38:51.455Z39.995° NE
5 mins2025-05-20 05:34:51.455Z337.8° N2025-05-20 05:36:51.455Z17.725° NNE25.55°2025-05-20 05:39:51.455Z80.905° E
5 mins2025-05-20 07:14:51.455Z287.888° WNW2025-05-20 07:16:51.455Z226.4° WSW37.197°2025-05-20 07:19:51.455Z154.655° SSE
|